Погода в Сарашах

Россия / Пермский край     56°46′37″N   55°45′12″E
темп.,
°C
ветер,
м/с
пор.,
м/с
влажн.,
%
обл.,
%
осадки,
мм/ч
давл.,
гПа
погр.,
м
8 мая, сб
сб823:00+13ю3672100 0.0 1017126
02:00+11ю227599 0.0 101732
05:00+11ю3574100 0.0 101798
08:00+12ююз2570100 0.1 1018214
11:00+17ююз3453100 0.1 1017761
14:00+18ю4546100 0.0 10171883
17:00+17ююз3351100 0.0 1017699
20:00+14юз116881 0.1 101723
9 мая, вс
вс923:00+11ююз1175100 0.1 101710
02:00+10вюв118094 0.0 101710
05:00+10юв118113 0.0 101710
08:00+13вюв24675 0.0 1018179
11:00+18юв34490 0.0 1017875
14:00+21ююв343830 0.0 10172362
17:00+21ю343632 0.0 10162250
20:00+18ю125097 0.0 101711
10 мая, пн
пн1023:00+16вюв225184 0.0 101811
02:00+13юв226070 0.0 101813
05:00+11юв226065 0.0 101918
08:00+15юв375787 0.0 1020204
11:00+20ю454114 0.0 1021876
14:00+22ююз4437100 0.0 10212105
17:00+16зюз71163100 0.0 1022350
20:00+15зсз3775100 0.4 1023252
11 мая, вт
вт1123:00+11ссз4893100 0.6 1024328
02:00+10ссз6989100 0.6 1026533
05:00+8ссз588512 0.6 1027532
08:00+7с58755 0.0 1029553
11:00+11с68460 0.0 10291097
14:00+14с673814 0.0 10291489
17:00+15ссз6739100 0.0 10291539
20:00+13ссз36545 0.0 1029176
12 мая, ср
ср1223:00+9с225998 0.0 103010
02:00+8сз1161100 0.0 103010
05:00+8з2262100 0.0 103010
08:00+10зсз3970100 0.0 1029285
11:00+16зсз5862100 0.0 1028695
14:00+20сз575799 0.0 10271596
17:00+18сз3760100 0.1 1026178
20:00+17сз2468100 0.0 102590